Location: Gradaro
(45.0833°N, 10.8833°E)
Time: 06:28:04
(UTC+00:00)

FENGYUN 1C DEB - Pass Details

Date: 29 June 2021
Orbit: 744 x 851 km, 99.4° (Epoch: 19 July)

Event Time Altitude Azimuth Distance (km) Brightness Sun altitude
Exits shadow 21:48:43 - 94° (E) 2,904 ? -18.6°
Reaches altitude 10° 21:51:16 10° 72° (ENE) 2,394 ? -18.8°
Maximum altitude 21:52:55 11° 53° (NE) 2,283 ? -18.9°
Drops below altitude 10° 21:54:32 10° 35° (NE) 2,376 ? -19.0°
Sets 21:58:34 0° 4° (N) 3,283 ? -19.3°
